Time,TemperatureF,DewpointF,PressureIn,WindDirection,WindDirectionDegrees,WindSpeedMPH,WindSpeedGustMPH,Humidity,HourlyPrecipIn,Conditions,Clouds,dailyrainin,SoftwareType,DateUTC
2013-07-23 00:12:00,69.6,68.0,29.82,WNW,290,0.0,0.0,95,0.00,,,0.00,weatherlink.com 1.10,2013-07-23 04:12:00,
2013-07-23 00:27:00,69.3,68.0,29.81,WNW,290,0.0,0.0,95,0.00,,,0.00,weatherlink.com 1.10,2013-07-23 04:27:00,
2013-07-23 00:42:00,69.1,68.0,29.81,WNW,290,0.0,0.0,95,0.00,,,0.00,weatherlink.com 1.10,2013-07-23 04:42:00,
2013-07-23 00:57:00,68.7,67.0,29.82,WNW,290,0.0,0.0,95,0.00,,,0.00,weatherlink.com 1.10,2013-07-23 04:57:00,
2013-07-23 01:12:00,68.5,67.0,29.81,WNW,290,0.0,0.0,95,0.00,,,0.00,weatherlink.com 1.10,2013-07-23 05:12:00,
2013-07-23 01:27:00,68.2,67.0,29.82,WNW,290,0.0,0.0,95,0.00,,,0.00,weatherlink.com 1.10,2013-07-23 05:27:00,
2013-07-23 01:42:00,67.9,67.0,29.82,WNW,290,0.0,0.0,95,0.00,,,0.00,weatherlink.com 1.10,2013-07-23 05:42:00,
2013-07-23 01:57:00,67.8,67.0,29.82,WNW,290,0.0,0.0,96,0.00,,,0.00,weatherlink.com 1.10,2013-07-23 05:57:00,
2013-07-23 02:12:00,67.7,67.0,29.82,WNW,290,0.0,0.0,96,0.00,,,0.00,weatherlink.com 1.10,2013-07-23 06:12:00,
2013-07-23 02:27:00,67.6,67.0,29.82,WNW,290,0.0,0.0,96,0.00,,,0.00,weatherlink.com 1.10,2013-07-23 06:27:00,
2013-07-23 02:42:00,67.6,67.0,29.82,WNW,290,0.0,0.0,96,0.00,,,0.00,weatherlink.com 1.10,2013-07-23 06:42:00,
2013-07-23 02:57:00,67.3,66.0,29.82,WNW,290,0.0,0.0,96,0.00,,,0.00,weatherlink.com 1.10,2013-07-23 06:57:00,
2013-07-23 03:12:00,67.2,66.0,29.82,WNW,290,0.0,0.0,96,0.00,,,0.00,weatherlink.com 1.10,2013-07-23 07:12:00,
2013-07-23 03:27:00,67.1,66.0,29.82,WNW,290,0.0,0.0,97,0.00,,,0.00,weatherlink.com 1.10,2013-07-23 07:27:00,
2013-07-23 03:42:00,67.1,66.0,29.81,WNW,290,0.0,0.0,97,0.00,,,0.00,weatherlink.com 1.10,2013-07-23 07:42:00,
2013-07-23 03:57:00,66.8,66.0,29.80,WNW,290,0.0,0.0,96,0.00,,,0.00,weatherlink.com 1.10,2013-07-23 07:57:00,
2013-07-23 04:12:00,66.7,66.0,29.81,WNW,290,0.0,0.0,96,0.00,,,0.00,weatherlink.com 1.10,2013-07-23 08:12:00,
2013-07-23 04:27:00,66.7,66.0,29.81,WNW,290,0.0,0.0,97,0.00,,,0.00,weatherlink.com 1.10,2013-07-23 08:27:00,
2013-07-23 04:42:00,66.6,66.0,29.81,WNW,290,0.0,0.0,97,0.00,,,0.00,weatherlink.com 1.10,2013-07-23 08:42:00,
2013-07-23 04:57:00,66.6,66.0,29.81,WNW,290,0.0,0.0,97,0.00,,,0.00,weatherlink.com 1.10,2013-07-23 08:57:00,
2013-07-23 05:12:00,66.5,66.0,29.81,WNW,290,0.0,0.0,97,0.00,,,0.00,weatherlink.com 1.10,2013-07-23 09:12:00,
2013-07-23 05:27:00,66.4,66.0,29.80,WNW,290,0.0,0.0,97,0.00,,,0.00,weatherlink.com 1.10,2013-07-23 09:27:00,
2013-07-23 05:42:00,66.3,66.0,29.80,WNW,290,0.0,0.0,97,0.00,,,0.00,weatherlink.com 1.10,2013-07-23 09:42:00,
2013-07-23 05:57:00,66.7,66.0,29.79,WNW,290,0.0,0.0,98,0.00,,,0.00,weatherlink.com 1.10,2013-07-23 09:57:00,
2013-07-23 06:12:00,66.7,66.0,29.78,WNW,290,0.0,0.0,97,0.00,,,0.00,weatherlink.com 1.10,2013-07-23 10:12:00,
2013-07-23 06:27:00,66.8,66.0,29.79,WNW,290,0.0,0.0,97,0.00,,,0.00,weatherlink.com 1.10,2013-07-23 10:27:00,
2013-07-23 06:42:00,67.0,67.0,29.78,WNW,290,0.0,0.0,98,0.00,,,0.00,weatherlink.com 1.10,2013-07-23 10:42:00,
2013-07-23 06:57:00,67.9,67.0,29.78,WNW,290,0.0,0.0,98,0.00,,,0.00,weatherlink.com 1.10,2013-07-23 10:57:00,
2013-07-23 07:12:00,68.3,68.0,29.77,South,190,2.0,2.0,98,0.00,,,0.00,weatherlink.com 1.10,2013-07-23 11:12:00,
2013-07-23 07:27:00,70.1,70.0,29.77,SW,215,1.0,2.0,98,0.00,,,0.00,weatherlink.com 1.10,2013-07-23 11:27:00,
2013-07-23 07:43:00,71.1,71.0,29.77,SSW,211,2.0,2.0,98,0.00,,,0.00,weatherlink.com 1.10,2013-07-23 11:43:00,
2013-07-23 07:58:00,71.7,71.0,29.78,SSW,198,0.0,3.0,98,0.00,,,0.00,weatherlink.com 1.10,2013-07-23 11:58:00,
2013-07-23 08:13:00,72.4,72.0,29.78,SW,219,0.0,5.0,99,0.00,,,0.00,weatherlink.com 1.10,2013-07-23 12:13:00,
2013-07-23 08:28:00,72.9,72.0,29.77,SSE,147,2.0,4.0,98,0.00,,,0.00,weatherlink.com 1.10,2013-07-23 12:28:00,
2013-07-23 08:43:00,73.2,73.0,29.78,South,184,0.0,3.0,99,0.00,,,0.00,weatherlink.com 1.10,2013-07-23 12:43:00,
2013-07-23 08:58:00,73.5,73.0,29.78,SW,215,0.0,2.0,98,0.00,,,0.00,weatherlink.com 1.10,2013-07-23 12:58:00,
2013-07-23 09:13:00,73.7,73.0,29.79,SW,227,0.0,3.0,99,0.00,,,0.00,weatherlink.com 1.10,2013-07-23 13:13:00,
2013-07-23 09:28:00,74.2,74.0,29.79,SSE,155,4.0,6.0,98,0.00,,,0.00,weatherlink.com 1.10,2013-07-23 13:28:00,
2013-07-23 09:43:00,74.7,74.0,29.79,South,179,3.0,5.0,98,0.00,,,0.00,weatherlink.com 1.10,2013-07-23 13:43:00,
2013-07-23 09:58:00,75.3,74.0,29.78,SW,225,0.0,4.0,96,0.00,,,0.00,weatherlink.com 1.10,2013-07-23 13:58:00,
2013-07-23 10:13:00,75.9,74.0,29.79,South,179,2.0,5.0,95,0.00,,,0.00,weatherlink.com 1.10,2013-07-23 14:13:00,
2013-07-23 10:28:00,76.4,75.0,29.80,South,186,1.0,5.0,94,0.00,,,0.00,weatherlink.com 1.10,2013-07-23 14:28:00,
2013-07-23 10:43:00,76.6,75.0,29.81,SSE,168,3.0,9.0,93,0.00,,,0.00,weatherlink.com 1.10,2013-07-23 14:43:00,
2013-07-23 10:58:00,77.0,75.0,29.81,South,175,4.0,9.0,92,0.00,,,0.00,weatherlink.com 1.10,2013-07-23 14:58:00,
2013-07-23 11:13:00,77.3,75.0,29.82,South,178,1.0,6.0,91,0.00,,,0.00,weatherlink.com 1.10,2013-07-23 15:13:00,
2013-07-23 11:28:00,77.6,75.0,29.82,South,189,5.0,8.0,91,0.00,,,0.00,weatherlink.com 1.10,2013-07-23 15:28:00,
2013-07-23 11:43:00,78.5,75.0,29.80,South,187,0.0,5.0,89,0.00,,,0.00,weatherlink.com 1.10,2013-07-23 15:43:00,
2013-07-23 11:58:00,79.9,77.0,29.80,SSW,211,3.0,5.0,89,0.00,,,0.00,weatherlink.com 1.10,2013-07-23 15:58:00,
2013-07-23 12:13:00,81.4,77.0,29.81,SSW,204,2.0,7.0,85,0.00,,,0.00,weatherlink.com 1.10,2013-07-23 16:13:00,
2013-07-23 12:28:00,82.2,77.0,29.80,SW,225,5.0,6.0,84,0.00,,,0.00,weatherlink.com 1.10,2013-07-23 16:28:00,
2013-07-23 12:43:00,82.7,77.0,29.80,South,182,2.0,7.0,82,0.00,,,0.00,weatherlink.com 1.10,2013-07-23 16:43:00,
2013-07-23 12:58:00,84.0,77.0,29.79,SSW,207,1.0,7.0,80,0.00,,,0.00,weatherlink.com 1.10,2013-07-23 16:58:00,
2013-07-23 13:13:00,85.5,78.0,29.79,SW,229,3.0,9.0,78,0.00,,,0.00,weatherlink.com 1.10,2013-07-23 17:13:00,
2013-07-23 13:28:00,86.6,77.0,29.78,SSW,213,3.0,9.0,73,0.00,,,0.00,weatherlink.com 1.10,2013-07-23 17:28:00,
2013-07-23 13:43:00,86.6,77.0,29.77,WSW,237,6.0,9.0,73,0.00,,,0.00,weatherlink.com 1.10,2013-07-23 17:43:00,
2013-07-23 13:59:00,87.7,78.0,29.76,SSE,159,5.0,9.0,72,0.00,,,0.00,weatherlink.com 1.10,2013-07-23 17:59:00,
2013-07-23 14:14:00,88.3,78.0,29.74,SW,234,5.0,7.0,72,0.00,,,0.00,weatherlink.com 1.10,2013-07-23 18:14:00,
2013-07-23 14:29:00,89.2,77.0,29.74,SW,229,6.0,8.0,68,0.00,,,0.00,weatherlink.com 1.10,2013-07-23 18:29:00,
2013-07-23 14:44:00,89.6,75.0,29.74,West,272,0.0,9.0,63,0.00,,,0.00,weatherlink.com 1.10,2013-07-23 18:44:00,
2013-07-23 14:59:00,89.6,75.0,29.75,WSW,252,3.0,10.0,63,0.00,,,0.00,weatherlink.com 1.10,2013-07-23 18:59:00,
2013-07-23 15:14:00,89.2,75.0,29.76,SW,215,3.0,7.0,64,0.00,,,0.00,weatherlink.com 1.10,2013-07-23 19:14:00,
2013-07-23 15:29:00,89.1,74.0,29.76,NW,306,4.0,7.0,62,0.00,,,0.00,weatherlink.com 1.10,2013-07-23 19:29:00,
2013-07-23 15:44:00,88.6,75.0,29.76,NW,313,2.0,4.0,64,0.00,,,0.00,weatherlink.com 1.10,2013-07-23 19:44:00,
2013-07-23 15:59:00,88.8,76.0,29.75,West,262,0.0,5.0,65,0.00,,,0.00,weatherlink.com 1.10,2013-07-23 19:59:00,
2013-07-23 16:14:00,89.0,76.0,29.75,NW,316,0.0,4.0,65,0.00,,,0.00,weatherlink.com 1.10,2013-07-23 20:14:00,
2013-07-23 16:44:00,90.9,76.0,29.73,WSW,253,1.0,5.0,62,0.00,,,0.00,weatherlink.com 1.10,2013-07-23 20:44:00,
2013-07-23 16:59:00,89.5,78.0,29.73,NNE,17,2.0,5.0,68,0.00,,,0.00,weatherlink.com 1.10,2013-07-23 20:59:00,
2013-07-23 17:14:00,87.1,78.0,29.72,NW,309,2.0,4.0,73,0.00,,,0.00,weatherlink.com 1.10,2013-07-23 21:14:00,
2013-07-23 17:59:00,84.4,78.0,29.73,North,350,1.0,2.0,80,0.00,,,0.00,weatherlink.com 1.10,2013-07-23 21:59:00,
2013-07-23 18:14:00,83.3,78.0,29.72,North,350,0.0,1.0,83,0.00,,,0.00,weatherlink.com 1.10,2013-07-23 22:14:00,
2013-07-23 18:29:00,82.5,77.0,29.73,NW,319,0.0,3.0,84,0.00,,,0.00,weatherlink.com 1.10,2013-07-23 22:29:00,
2013-07-23 19:14:00,85.2,72.0,29.72,SW,231,4.0,8.0,65,0.00,,,0.00,weatherlink.com 1.10,2013-07-23 23:14:00,
2013-07-23 19:29:00,84.3,72.0,29.72,WSW,254,1.0,5.0,67,0.00,,,0.00,weatherlink.com 1.10,2013-07-23 23:29:00,
2013-07-23 19:44:00,83.0,72.0,29.72,WSW,252,0.0,6.0,69,0.00,,,0.00,weatherlink.com 1.10,2013-07-23 23:44:00,
2013-07-23 19:59:00,82.3,72.0,29.72,WSW,244,0.0,5.0,71,0.00,,,0.00,weatherlink.com 1.10,2013-07-23 23:59:00,
2013-07-23 20:14:00,81.5,72.0,29.72,WSW,238,1.0,1.0,73,0.00,,,0.00,weatherlink.com 1.10,2013-07-24 00:14:00,
2013-07-23 20:59:00,79.2,72.0,29.73,WSW,238,0.0,0.0,79,0.00,,,0.00,weatherlink.com 1.10,2013-07-24 00:59:00,
2013-07-23 21:14:00,78.4,73.0,29.74,WSW,238,0.0,0.0,82,0.00,,,0.00,weatherlink.com 1.10,2013-07-24 01:14:00,
2013-07-23 21:29:00,77.2,72.0,29.75,WSW,238,0.0,0.0,84,0.00,,,0.00,weatherlink.com 1.10,2013-07-24 01:29:00,
2013-07-23 21:44:00,76.0,72.0,29.76,WSW,238,0.0,0.0,87,0.00,,,0.00,weatherlink.com 1.10,2013-07-24 01:44:00,
2013-07-23 21:59:00,74.9,72.0,29.77,WSW,238,0.0,1.0,89,0.00,,,0.00,weatherlink.com 1.10,2013-07-24 01:59:00,
2013-07-23 22:14:00,74.2,71.0,29.78,West,263,0.0,1.0,90,0.00,,,0.00,weatherlink.com 1.10,2013-07-24 02:14:00,
2013-07-23 22:44:00,74.3,70.0,29.80,West,279,0.0,2.0,87,0.00,,,0.00,weatherlink.com 1.10,2013-07-24 02:44:00,
2013-07-23 23:14:00,74.1,70.0,29.80,West,280,0.0,2.0,87,0.00,,,0.00,weatherlink.com 1.10,2013-07-24 03:14:00,